Temp
85 90 92 86 73 73 68 69 76 74 75 78 78 78 77 77 72 67 74 78 81 81 81 76 79 78 77 78 78 77 76 76 75 75 76 75 77 76 76 76 76 76 76 77 77 77 77 77 76
89 88 88 82 70 66 67 74 71 75 76 79 78 78 78 73 76 71 73 76 82 82 80 78 78 78 78 77 77 76 76 76 76 75 75 75 75 75 75 76 75 76 76 76 75 76 76 76 75
88 88 82 76 72 68 67 73 75 75 78 78 76 78 77 73 74 77 79 79 83 81 83 81 78 78 78 77 75 76 76 75 75 75 75 75 75 75 75 75 75 75 75 75 74 74 75 75 75
88 87 82 71 65 68 71 75 75 75 77 78 78 76 77 76 76 80 80 81 82 82 83 78 78 78 78 77 75 76 75 75 75 75 75 74 74 74 74 74 74 74 74 74 74 74 74 74 74
88 83 72 67 66 70 76 76 76 76 77 78 78 75 74 75 77 79 80 81 81 82 83 81 77 76 77 77 76 75 75 75 75 75 74 74 73 73 73 73 73 73 74 74 74 74 74 73 73
78 78 68 64 65 71 76 77 77 77 78 77 78 77 75 76 76 78 81 81 83 82 82 79 77 76 76 76 76 75 75 74 74 74 73 73 73 72 72 72 72 72 72 72 73 73 73 73 73
73 74 64 65 66 69 72 77 78 77 77 78 80 76 76 75 77 80 81 83 82 82 79 78 81 77 76 75 75 75 75 74 73 73 72 72 72 71 71 72 72 71 71 72 71 72 72 73 72
78 75 65 66 66 65 74 76 77 78 76 78 80 77 76 77 77 79 81 81 81 81 81 82 79 78 80 76 74 74 74 73 74 73 71 71 71 70 70 70 71 71 71 71 71 71 71 71 72
76 70 64 64 66 68 77 74 78 80 79 78 78 79 75 76 76 76 76 77 78 78 80 82 81 79 77 75 74 74 73 73 72 72 70 70 77 75 74 69 70 70 70 70 71 71 70 68 69
75 69 65 71 73 72 74 76 77 77 77 77 78 75 74 74 75 74 73 74 75 75 78 80 81 81 79 75 74 75 76 74 78 77 76 79 78 76 74 69 66 67 69 69 69 68 67 68 79
72 68 70 72 74 75 74 75 78 76 73 76 76 78 73 74 75 76 76 77 76 77 78 79 79 80 79 79 79 76 75 76 78 76 76 76 76 76 77 77 76 76 68 77 74 75 78 76 79
69 71 72 72 72 72 73 76 76 74 71 76 78 79 76 75 76 77 77 78 78 77 77 78 78 78 79 80 79 79 77 77 76 76 74 75 75 76 76 76 75 75 76 76 76 78 77 77 77
69 70 71 73 72 72 72 71 72 71 73 77 77 76 76 78 78 79 80 80 79 78 77 77 77 78 79 79 79 78 78 76 77 75 74 75 74 74 75 76 76 75 76 76 75 76 76 77 78
70 69 70 71 70 71 71 69 72 71 73 74 74 74 76 76 77 78 77 78 78 79 78 79 78 77 78 77 77 77 78 77 77 76 76 75 76 75 74 76 74 75 75 76 75 75 75 76 77
69 68 70 71 70 68 75 65 63 69 73 72 72 73 72 73 75 76 79 78 80 80 80 78 78 78 76 76 76 76 76 76 76 76 76 75 75 75 75 75 74 75 76 72 74 75 75 74 76
68 69 64 68 71 68 68 57 64 69 71 68 70 71 70 72 73 75 76 78 81 81 79 79 77 77 76 77 76 76 76 75 76 76 76 75 75 74 74 74 74 75 74 73 73 74 73 73 74
67 63 62 63 68 68 70 60 64 67 68 66 68 68 69 70 70 72 73 74 78 80 80 78 77 77 77 77 77 76 76 76 76 77 76 75 74 74 74 74 74 74 73 72 72 72 72 73 74
60 61 61 60 64 67 62 58 62 65 65 64 66 67 67 67 67 70 71 72 76 79 80 79 78 78 77 77 77 76 75 75 76 75 76 76 75 74 73 73 73 73 72 71 71 71 72 71 72
63 61 59 61 63 62 59 58 59 62 63 62 63 64 64 66 69 70 70 71 73 76 76 77 77 77 77 75 73 73 72 74 74 75 75 75 75 74 73 73 73 72 71 72 71 71 70 70 72
61 60 59 60 62 63 59 56 58 60 59 60 61 62 62 64 66 67 68 69 70 70 74 75 76 76 75 75 75 76 76 76 76 75 75 75 74 74 73 73 73 73 71 70 70 69 69 70 72
60 59 58 59 60 63 60 55 57 59 61 62 62 63 63 62 62 64 65 66 68 69 69 72 74 75 74 74 74 72 73 71 71 72 73 74 74 74 73 73 73 73 72 70 70 70 67 68 71
56 60 59 58 58 55 60 54 54 57 57 58 60 60 61 61 63 63 63 63 65 66 69 71 71 72 73 73 72 71 72 71 75 75 75 74 74 74 73 73 73 73 73 71 71 71 69 68 67
58 60 59 58 57 56 54 53 55 56 53 54 57 58 60 61 62 62 63 64 64 65 66 68 69 69 69 70 70 70 70 72 74 73 71 73 73 74 74 73 74 73 73 73 72 71 70 70 68
60 58 56 56 56 49 54 54 52 54 52 53 56 57 58 60 61 62 64 64 64 65 65 65 66 66 67 68 67 67 66 68 69 70 70 72 73 73 73 72 72 73 73 72 71 71 70 70 69
60 57 52 48 47 50 52 51 50 51 53 54 54 56 58 60 60 60 60 61 62 62 63 65 65 64 66 65 65 65 65 65 66 67 69 69 70 71 71 72 71 72 71 71 71 71 70 69 68
57 57 52 43 48 50 50 48 47 53 55 55 56 57 58 58 59 59 59 60 61 62 63 64 64 64 65 65 64 65 65 66 67 67 67 68 69 70 71 70 71 72 72 71 71 70 69 70 69
55 54 56 50 49 48 51 46 49 52 52 54 54 55 55 57 58 58 60 60 61 62 62 63 64 64 65 65 65 65 67 66 65 66 67 67 67 68 68 68 68 70 70 71 70 69 69 69 69
57 58 51 53 42 42 46 46 52 46 49 51 52 53 54 56 57 58 59 59 61 62 63 64 64 64 64 65 65 65 66 67 67 66 65 65 66 67 67 67 67 68 68 69 69 68 69 69 69
56 55 52 52 50 46 45 49 51 52 53 52 53 53 54 55 56 58 59 60 61 62 62 62 63 63 63 64 65 65 65 66 67 66 66 66 66 66 66 66 67 67 67 68 68 68 68 68 68
53 50 50 47 45 48 46 48 50 52 55 54 53 53 55 55 56 57 59 60 60 60 60 60 60 60 62 63 64 64 64 65 65 65 65 66 65 66 66 66 66 66 66 67 67 66 67 66 66
MSLP
1012.07 1011.72 1011.43 1010.86 1010.32 1009.18 1008.61 1009.10 1009.48 1009.50 1009.77 1010.65 1010.87 1010.65 1010.76 1011.33 1012.05 1013.88 1015.91 1016.13 1016.18 1016.54 1016.97 1017.51 1017.46 1017.72 1018.13 1018.23 1018.38 1018.65 1018.87 1019.03 1019.17 1019.12 1019.05 1019.00 1018.77 1018.78 1018.77 1018.75 1018.72 1018.50 1018.27 1018.13 1018.09 1017.69 1018.02 1018.07 1018.18
1011.86 1011.59 1011.09 1010.30 1009.50 1008.46 1008.69 1009.36 1009.45 1010.05 1010.65 1011.06 1011.19 1011.20 1011.15 1012.00 1013.42 1014.92 1015.72 1016.42 1016.36 1016.63 1017.28 1017.47 1017.71 1017.97 1018.32 1018.65 1018.78 1019.04 1019.13 1019.31 1019.40 1019.45 1019.46 1019.40 1019.38 1019.34 1019.22 1019.13 1019.04 1019.02 1018.86 1018.73 1018.48 1018.69 1018.76 1018.86 1018.85
1011.74 1011.45 1010.39 1009.87 1009.37 1008.54 1008.82 1009.65 1009.97 1010.65 1011.09 1011.07 1011.18 1011.85 1012.05 1012.98 1014.23 1014.72 1015.60 1016.27 1016.34 1016.89 1017.05 1017.45 1018.02 1018.34 1018.50 1018.85 1019.21 1019.34 1019.52 1019.71 1019.82 1019.80 1019.84 1019.83 1019.73 1019.76 1019.74 1019.63 1019.39 1019.42 1019.34 1019.34 1019.58 1019.63 1019.53 1019.62 1019.57
1011.49 1011.05 1011.07 1009.90 1009.48 1009.98 1009.79 1009.97 1010.48 1010.70 1011.11 1011.34 1011.35 1011.55 1013.16 1014.42 1014.56 1015.02 1015.91 1016.29 1016.42 1016.89 1017.16 1017.94 1018.20 1018.45 1018.68 1019.08 1019.44 1019.55 1019.83 1019.96 1020.04 1020.08 1020.14 1020.29 1020.25 1020.26 1020.18 1020.19 1020.12 1020.10 1020.05 1020.00 1020.01 1020.05 1020.07 1020.04 1020.05
1011.65 1011.00 1010.30 1010.10 1010.24 1010.41 1010.40 1010.62 1010.63 1010.44 1010.77 1011.07 1011.46 1011.90 1013.13 1014.84 1015.48 1015.67 1016.15 1016.45 1016.57 1016.93 1017.17 1017.85 1018.30 1018.65 1018.91 1019.29 1019.66 1019.89 1020.08 1020.17 1020.26 1020.40 1020.57 1020.67 1020.71 1020.69 1020.75 1020.71 1020.65 1020.62 1020.44 1020.45 1020.50 1020.38 1020.31 1020.59 1020.49
1011.11 1011.20 1010.33 1010.05 1010.50 1010.76 1010.72 1010.91 1010.77 1010.66 1010.92 1011.29 1011.29 1011.86 1013.42 1015.11 1015.47 1015.87 1016.23 1016.55 1016.80 1017.19 1017.41 1018.17 1018.57 1018.89 1019.20 1019.50 1019.78 1020.07 1020.26 1020.48 1020.62 1020.71 1020.98 1021.10 1021.07 1021.12 1021.17 1021.10 1021.06 1021.07 1021.08 1021.00 1020.83 1020.83 1020.92 1020.83 1020.84
1011.19 1010.94 1010.98 1010.90 1010.89 1010.76 1011.11 1011.31 1010.73 1010.79 1011.07 1011.37 1011.83 1011.72 1013.68 1014.78 1015.62 1016.04 1016.27 1016.59 1016.99 1017.39 1018.09 1018.40 1018.41 1019.05 1019.31 1019.68 1019.96 1020.21 1020.44 1020.77 1020.94 1021.11 1021.34 1021.50 1021.54 1021.49 1021.45 1021.43 1021.46 1021.49 1021.46 1021.43 1021.39 1021.36 1021.26 1021.12 1021.08
1011.84 1011.46 1011.37 1011.46 1011.11 1011.39 1011.53 1011.40 1011.50 1011.30 1011.62 1012.37 1012.38 1012.04 1013.16 1014.67 1015.85 1016.25 1016.56 1016.85 1017.14 1017.57 1017.98 1017.98 1018.69 1019.05 1019.17 1019.74 1020.08 1020.38 1020.65 1020.93 1021.08 1021.28 1021.63 1021.77 1021.81 1021.85 1021.87 1021.81 1021.81 1021.79 1021.76 1021.74 1021.72 1021.67 1021.59 1021.47 1021.41
1012.43 1011.55 1011.40 1011.76 1011.57 1011.79 1011.68 1011.40 1011.88 1012.08 1011.82 1012.27 1012.75 1013.20 1014.48 1015.23 1016.06 1016.41 1016.71 1017.01 1017.34 1017.70 1017.99 1018.14 1018.49 1019.10 1019.44 1019.96 1020.22 1020.49 1020.77 1021.04 1021.34 1021.56 1021.83 1021.98 1021.48 1021.63 1021.68 1022.21 1022.09 1022.01 1021.98 1021.97 1021.88 1021.84 1021.81 1021.83 1021.75
1012.04 1011.62 1012.11 1012.45 1012.37 1012.16 1012.05 1011.76 1011.81 1011.89 1011.97 1012.30 1012.89 1014.10 1014.97 1015.63 1015.85 1015.99 1016.30 1016.64 1017.13 1017.53 1017.94 1018.24 1018.42 1018.71 1019.21 1020.00 1020.29 1020.50 1020.66 1021.07 1020.86 1021.08 1021.31 1021.37 1021.54 1021.69 1021.88 1022.35 1022.54 1022.45 1022.25 1022.17 1022.10 1022.08 1022.07 1021.89 1021.27
1012.56 1012.18 1012.75 1012.77 1012.79 1012.67 1012.35 1012.14 1012.36 1012.16 1012.39 1013.13 1013.30 1013.58 1014.75 1015.12 1015.42 1015.63 1015.92 1016.21 1016.77 1017.32 1017.87 1018.25 1018.64 1018.90 1019.18 1019.34 1019.75 1020.46 1020.55 1020.88 1020.88 1021.16 1021.32 1021.50 1021.68 1021.72 1021.73 1021.79 1021.81 1021.89 1022.20 1021.64 1021.73 1021.59 1021.41 1021.29 1021.24
1012.81 1013.11 1013.13 1013.13 1013.40 1013.19 1012.83 1012.86 1012.78 1013.39 1014.30 1014.29 1013.94 1013.89 1014.49 1014.79 1014.84 1014.93 1015.31 1015.86 1016.45 1017.05 1017.64 1018.21 1018.56 1018.97 1019.05 1019.30 1019.63 1019.83 1020.29 1020.64 1020.83 1021.11 1021.39 1021.42 1021.45 1021.52 1021.63 1021.64 1021.76 1021.84 1021.74 1021.59 1021.55 1021.32 1021.38 1021.30 1021.28
1013.15 1013.38 1013.44 1013.44 1013.51 1013.52 1013.65 1013.60 1013.67 1014.33 1014.75 1014.35 1014.13 1014.25 1014.33 1014.41 1014.59 1015.03 1015.26 1015.68 1016.24 1016.73 1017.33 1017.86 1018.43 1018.74 1018.98 1019.24 1019.45 1019.72 1020.03 1020.53 1020.61 1021.04 1021.30 1021.37 1021.41 1021.41 1021.54 1021.56 1021.66 1021.71 1021.73 1021.56 1021.46 1021.36 1021.25 1021.10 1020.99
1013.77 1013.69 1013.58 1013.63 1013.60 1013.81 1013.65 1014.22 1014.16 1014.93 1015.24 1014.72 1014.57 1014.52 1014.49 1014.63 1014.81 1015.06 1015.45 1015.65 1016.09 1016.42 1016.93 1017.52 1018.08 1018.64 1018.86 1019.12 1019.43 1019.70 1019.93 1020.21 1020.53 1020.77 1020.98 1021.21 1021.24 1021.22 1021.32 1021.34 1021.53 1021.54 1021.59 1021.54 1021.46 1021.25 1021.18 1021.03 1020.97
1013.84 1013.44 1013.40 1013.58 1013.81 1014.17 1013.83 1014.59 1015.75 1016.23 1015.57 1015.27 1014.99 1015.04 1015.09 1015.23 1015.21 1015.21 1015.16 1015.45 1015.69 1016.04 1016.52 1017.12 1017.70 1018.23 1018.74 1019.05 1019.35 1019.77 1019.97 1020.21 1020.38 1020.58 1020.82 1020.94 1021.06 1021.05 1021.11 1021.17 1021.29 1021.33 1021.46 1021.65 1021.50 1021.28 1021.28 1021.10 1020.89
1013.29 1013.17 1012.82 1013.82 1013.82 1014.46 1014.64 1015.48 1016.55 1016.80 1016.17 1015.93 1015.69 1015.58 1015.61 1015.58 1015.70 1015.80 1015.83 1015.52 1015.51 1015.77 1016.27 1016.91 1017.54 1017.90 1018.37 1018.67 1019.10 1019.50 1019.75 1020.11 1020.15 1020.28 1020.54 1020.76 1020.90 1021.03 1021.04 1021.05 1021.04 1021.28 1021.43 1021.45 1021.29 1021.11 1021.04 1020.92 1020.72
1012.91 1012.41 1013.07 1013.77 1014.45 1014.33 1014.17 1015.77 1017.19 1017.42 1016.97 1016.65 1016.47 1016.31 1016.29 1016.17 1016.24 1016.30 1016.26 1015.97 1015.46 1015.63 1015.94 1016.52 1017.21 1017.64 1018.03 1018.40 1018.75 1019.18 1019.50 1019.78 1019.91 1020.05 1020.22 1020.44 1020.68 1020.85 1020.92 1020.84 1020.90 1021.11 1021.20 1021.28 1021.21 1021.08 1021.04 1020.69 1020.50
1012.80 1013.02 1013.62 1013.97 1014.96 1015.01 1015.56 1016.83 1017.70 1017.95 1017.73 1017.54 1017.38 1017.17 1016.99 1016.88 1016.89 1016.72 1016.37 1015.95 1015.43 1015.39 1015.74 1016.18 1016.78 1017.27 1017.80 1018.22 1018.58 1018.92 1019.20 1019.45 1019.62 1019.80 1019.93 1020.14 1020.38 1020.61 1020.78 1020.76 1020.84 1020.97 1021.05 1021.07 1021.14 1021.00 1020.88 1020.79 1020.63
1013.73 1013.74 1013.94 1014.66 1015.55 1015.74 1016.48 1017.40 1018.25 1018.64 1018.54 1018.39 1018.26 1018.14 1017.96 1017.66 1017.50 1017.12 1016.69 1016.18 1015.57 1015.46 1015.81 1016.09 1016.52 1017.04 1017.59 1018.01 1018.33 1018.61 1018.78 1019.06 1019.26 1019.47 1019.63 1019.87 1020.01 1020.25 1020.42 1020.43 1020.49 1020.74 1020.80 1020.71 1020.87 1020.84 1020.74 1020.55 1020.62
1014.10 1013.99 1014.18 1015.07 1015.60 1015.57 1016.62 1017.62 1018.63 1019.06 1019.38 1019.57 1019.36 1019.09 1018.92 1018.55 1017.98 1017.61 1017.11 1016.71 1016.30 1015.96 1015.91 1016.26 1016.60 1017.03 1017.58 1017.90 1018.11 1018.27 1018.37 1018.53 1018.63 1018.90 1019.21 1019.46 1019.68 1019.88 1020.05 1020.16 1020.17 1020.25 1020.49 1020.60 1020.66 1020.75 1020.45 1020.42 1020.47
1014.43 1014.28 1014.48 1014.65 1015.57 1015.86 1016.32 1017.16 1018.12 1019.23 1019.71 1019.97 1020.04 1020.07 1019.86 1019.46 1019.00 1018.52 1017.96 1017.44 1017.04 1016.71 1016.57 1016.54 1016.85 1017.12 1017.59 1017.96 1018.25 1018.63 1018.79 1019.06 1018.89 1018.86 1018.96 1018.99 1019.27 1019.46 1019.71 1019.81 1019.81 1019.88 1020.13 1020.13 1020.25 1020.40 1020.49 1020.14 1020.17
1014.80 1015.15 1015.21 1015.29 1015.25 1014.97 1016.08 1015.75 1017.73 1018.83 1019.70 1020.34 1020.61 1020.69 1020.56 1020.31 1019.89 1019.51 1018.98 1018.44 1017.99 1017.62 1017.31 1017.20 1017.36 1017.50 1017.75 1018.11 1018.26 1018.24 1018.14 1018.05 1018.09 1018.33 1018.44 1018.58 1018.80 1018.93 1019.12 1019.28 1019.42 1019.50 1019.66 1019.84 1019.84 1020.01 1020.14 1020.31 1019.90
1015.49 1015.67 1015.50 1015.41 1015.17 1015.33 1015.74 1016.17 1017.09 1018.84 1019.75 1020.80 1021.40 1021.68 1021.57 1021.24 1020.85 1020.35 1019.94 1019.54 1019.32 1018.86 1018.34 1018.04 1018.03 1018.17 1018.38 1018.45 1018.52 1018.37 1018.25 1018.16 1018.19 1018.47 1018.53 1018.45 1018.43 1018.51 1018.53 1018.78 1018.95 1019.09 1019.19 1019.23 1019.31 1019.53 1019.77 1019.90 1019.81
1016.14 1015.96 1015.87 1015.66 1015.26 1014.97 1015.15 1015.97 1017.18 1018.69 1020.32 1021.43 1022.02 1022.26 1022.30 1022.11 1021.73 1021.37 1021.00 1020.60 1020.22 1019.94 1019.54 1019.24 1018.95 1018.84 1018.92 1018.90 1018.92 1018.83 1018.73 1018.60 1018.48 1018.34 1018.31 1018.22 1018.22 1018.19 1018.28 1018.39 1018.39 1018.57 1018.68 1018.72 1018.82 1019.01 1019.24 1019.42 1019.47
1016.09 1015.61 1014.78 1014.77 1014.66 1014.16 1015.92 1016.81 1018.36 1020.26 1021.26 1022.02 1022.53 1022.84 1022.93 1022.78 1022.51 1022.22 1021.81 1021.43 1021.18 1020.88 1020.55 1020.17 1019.94 1019.68 1019.63 1019.52 1019.49 1019.37 1019.21 1019.04 1018.83 1018.65 1018.40 1018.32 1018.07 1017.95 1017.95 1018.06 1018.09 1017.97 1018.01 1018.10 1018.19 1018.39 1018.63 1018.77 1018.79
1016.00 1015.76 1014.85 1014.27 1014.06 1014.70 1016.48 1017.14 1019.43 1021.18 1022.25 1022.96 1023.23 1023.35 1023.42 1023.37 1023.28 1023.13 1022.88 1022.44 1022.06 1021.80 1021.49 1021.13 1020.83 1020.60 1020.47 1020.23 1020.16 1020.03 1019.76 1019.48 1019.27 1019.16 1018.88 1018.59 1018.37 1018.11 1017.94 1017.91 1017.82 1017.69 1017.57 1017.59 1017.69 1017.81 1017.90 1018.00 1018.14
1016.49 1016.11 1016.28 1015.52 1015.69 1015.60 1016.14 1018.77 1020.66 1021.65 1022.49 1023.13 1023.52 1023.74 1023.84 1023.84 1023.86 1023.76 1023.64 1023.36 1022.99 1022.64 1022.28 1021.92 1021.59 1021.38 1021.21 1021.06 1020.81 1020.52 1020.25 1020.06 1019.91 1019.69 1019.41 1019.12 1018.83 1018.50 1018.17 1017.93 1017.74 1017.51 1017.40 1017.31 1017.36 1017.33 1017.24 1017.39 1017.43
1017.09 1017.21 1016.68 1016.14 1015.49 1015.30 1016.39 1017.74 1018.31 1021.13 1022.23 1023.25 1023.70 1024.05 1024.33 1024.39 1024.32 1024.20 1024.16 1024.06 1023.85 1023.57 1023.15 1022.79 1022.40 1022.08 1021.93 1021.64 1021.35 1021.12 1020.92 1020.64 1020.37 1020.11 1019.84 1019.54 1019.17 1018.77 1018.32 1017.99 1017.74 1017.51 1017.32 1017.17 1017.16 1017.04 1016.91 1016.83 1016.73
1018.00 1017.64 1017.60 1017.33 1016.91 1016.14 1016.52 1017.34 1019.82 1020.56 1021.96 1022.92 1023.81 1024.39 1024.71 1024.86 1024.80 1024.71 1024.58 1024.47 1024.38 1024.20 1023.85 1023.47 1023.07 1022.78 1022.51 1022.24 1021.90 1021.65 1021.40 1021.11 1020.80 1020.55 1020.26 1019.89 1019.46 1019.07 1018.66 1018.28 1017.90 1017.58 1017.33 1017.08 1016.90 1016.76 1016.61 1016.43 1016.31
1019.74 1019.44 1019.13 1018.29 1017.83 1018.10 1018.53 1019.24 1021.21 1021.80 1022.44 1023.41 1024.15 1024.73 1025.09 1025.28 1025.25 1025.20 1025.04 1024.82 1024.73 1024.62 1024.45 1024.21 1023.95 1023.65 1023.31 1022.94 1022.52 1022.20 1021.94 1021.61 1021.24 1020.95 1020.65 1020.20 1019.82 1019.35 1019.01 1018.61 1018.21 1017.85 1017.51 1017.16 1016.86 1016.61 1016.37 1016.18 1015.90
Wind_Speed
2 2 1 4 5 4 4 5 1 4 3 2 2 4 7 6 7 6 5 4 10 14 11 10 14 14 11 10 11 11 11 12 11 9 8 12 12 14 13 13 12 14 15 18 18 18 18 17 16
0 2 2 1 5 6 7 2 3 5 5 5 2 1 1 6 5 7 10 6 13 13 11 11 12 10 12 11 9 12 13 11 9 9 10 11 12 12 15 11 13 14 15 17 21 16 14 14 14
1 3 3 2 3 3 5 5 4 5 6 1 2 3 3 5 5 8 6 14 16 13 9 13 12 11 12 11 12 11 12 8 9 11 10 10 12 12 13 12 12 15 15 17 16 14 13 13 12
2 3 3 4 5 5 4 6 2 7 2 0 1 5 4 5 2 3 11 15 16 13 11 14 10 11 11 12 11 11 10 9 8 9 10 11 12 12 12 12 11 12 11 11 12 12 13 12 11
1 2 3 4 5 2 2 5 2 3 3 3 2 5 4 5 4 8 14 13 15 13 11 12 12 12 13 13 11 10 9 8 9 10 10 8 9 10 10 10 10 10 10 10 9 10 11 10 10
2 3 4 5 4 2 2 3 3 1 3 4 0 2 6 6 8 10 14 13 12 12 11 7 12 13 12 13 10 11 9 9 10 10 9 8 8 8 8 8 9 9 8 8 8 8 8 9 9
2 0 5 6 7 5 4 2 3 3 3 5 3 3 5 8 9 12 13 12 11 12 8 8 12 11 10 12 11 10 8 9 9 8 7 7 7 7 7 7 7 7 7 7 6 6 6 7 8
1 1 5 3 6 6 5 1 2 1 4 2 3 5 6 11 12 12 11 11 12 11 11 9 11 9 9 10 10 9 10 7 6 7 8 7 6 6 7 3 6 6 5 5 5 5 5 5 6
1 2 6 5 3 6 6 2 3 1 2 2 3 5 5 13 14 13 12 11 11 10 10 9 12 9 11 7 7 9 10 7 7 7 8 6 3 4 3 8 4 3 3 3 3 3 4 4 5
2 3 5 3 4 5 4 6 3 3 3 3 1 5 7 13 14 15 14 13 14 14 12 9 8 11 7 7 6 6 8 3 4 4 5 2 3 4 2 2 3 3 4 3 3 4 1 6 2
2 4 2 4 3 3 4 3 3 4 6 10 11 3 9 12 13 12 12 13 14 14 11 11 9 8 11 8 7 5 2 5 4 5 4 2 2 3 2 1 1 1 1 2 3 4 2 1 1
2 2 3 2 3 4 4 4 6 10 8 12 11 6 8 12 12 14 13 12 14 14 14 13 12 10 9 6 6 6 6 4 4 4 4 4 3 3 2 1 1 1 0 1 2 1 1 2 3
1 2 3 4 7 4 2 6 4 12 18 12 7 4 5 8 9 9 9 10 12 14 14 14 13 11 9 9 6 6 6 6 5 4 5 4 3 3 3 2 2 1 2 2 2 2 2 3 4
2 3 3 2 4 4 5 8 1 14 16 12 9 8 7 5 6 7 9 10 12 12 14 15 14 13 11 9 8 6 6 6 5 5 5 6 4 4 4 2 2 3 2 2 3 3 3 3 4
1 5 4 9 4 5 6 11 11 13 11 12 13 11 9 8 7 8 8 11 12 12 13 15 15 14 12 11 9 7 6 6 5 5 6 7 6 5 5 3 3 3 2 4 3 4 4 4 4
2 3 4 7 7 4 6 6 11 12 11 14 15 14 12 11 10 8 9 9 9 11 12 13 12 14 14 12 9 7 7 6 6 5 5 7 7 7 6 4 4 3 3 3 3 3 4 4 4
2 4 2 4 7 2 3 6 11 12 11 14 14 14 14 12 13 11 10 9 12 12 13 13 14 15 14 12 9 8 8 7 6 6 6 7 7 7 6 5 4 5 4 4 4 4 4 4 4
3 2 1 2 7 9 13 10 10 12 13 14 14 14 15 15 15 14 13 10 8 11 12 12 12 14 12 9 8 6 6 7 6 6 6 7 6 7 6 5 5 5 4 4 4 5 3 4 4
3 1 1 3 4 6 10 10 11 12 14 15 15 15 16 16 15 14 13 11 5 7 10 11 11 12 9 8 8 7 8 7 7 7 9 9 8 8 8 6 6 6 5 6 5 5 5 4 4
3 2 4 5 2 4 8 10 10 12 12 14 15 16 17 17 18 18 16 14 11 3 6 8 9 10 9 7 6 5 5 6 6 6 8 9 9 9 8 8 7 7 5 7 7 6 4 4 4
2 3 4 1 5 4 9 6 5 8 11 12 15 15 17 18 19 19 19 17 14 11 4 4 6 7 8 8 5 4 3 3 4 5 6 8 10 9 9 9 8 7 7 6 7 7 7 5 4
2 1 2 5 5 2 7 2 6 7 10 13 14 15 16 18 18 19 19 19 18 15 11 8 4 3 4 6 6 8 6 5 2 3 3 4 8 10 10 10 9 9 7 8 7 7 7 7 7
4 2 1 2 5 4 8 6 10 4 7 10 12 14 15 16 17 19 20 20 19 17 15 12 11 9 6 1 4 4 6 5 4 4 5 5 5 7 9 9 9 10 8 9 9 9 9 7 8
8 3 2 2 3 6 5 9 8 4 6 8 9 12 13 14 16 17 17 18 19 17 17 16 16 14 10 7 4 4 5 6 5 5 5 5 5 5 7 8 9 10 10 10 9 10 11 10 9
4 5 4 5 6 2 2 6 9 8 7 8 9 10 11 12 14 15 17 17 18 18 18 15 17 17 16 15 13 10 6 5 5 6 5 6 5 5 5 7 8 8 10 10 10 10 11 11 11
1 4 5 5 3 4 4 5 7 8 9 9 8 9 10 11 12 14 14 14 15 16 16 16 17 16 15 15 14 12 12 8 7 7 5 4 5 6 7 7 8 9 10 9 10 8 9 11 10
4 4 4 4 0 4 6 5 6 9 10 9 8 8 10 10 11 13 14 13 14 15 15 15 15 15 15 14 12 12 12 12 10 10 8 7 7 6 6 7 7 8 9 10 9 8 10 11 11
3 3 4 3 4 5 5 4 3 15 13 10 8 8 8 8 10 11 11 13 12 13 12 14 14 14 14 13 12 10 11 11 10 9 10 10 9 10 9 8 6 7 7 8 9 9 10 11 9
0 2 0 4 4 5 5 4 6 13 13 12 9 7 6 8 9 10 10 11 11 12 13 13 14 14 14 13 12 11 11 11 10 10 10 10 10 10 10 10 9 7 6 7 8 10 10 11 11
2 3 4 5 2 0 4 1 3 2 10 9 9 6 6 7 7 8 9 10 11 12 12 13 13 13 13 12 12 11 11 11 11 10 11 11 11 10 10 10 9 9 9 7 7 8 9 10 11
Wind_Direction
268 275 213 232 227 238 146 111 38 121 125 48 20 324 15 24 3 30 131 103 150 149 143 163 128 119 120 111 102 109 116 101 81 85 68 64 71 64 77 73 72 66 67 67 59 59 60 57 60
277 231 222 211 241 202 119 78 106 62 94 101 97 307 32 65 57 95 140 146 155 146 143 143 130 132 135 110 107 116 103 92 88 91 79 73 76 75 68 77 74 66 71 68 57 59 73 65 60
222 323 247 214 224 180 111 64 83 97 123 53 123 2 12 55 71 131 94 152 157 148 144 134 129 133 140 131 113 108 98 107 96 91 75 76 75 76 77 69 67 61 65 63 65 67 76 75 75
277 180 162 243 141 98 54 46 71 139 158 71 14 90 115 34 61 109 140 150 155 149 147 126 141 140 142 145 120 110 125 116 111 93 92 78 72 71 79 73 70 86 80 73 62 71 67 82 74
38 231 173 144 113 83 20 4 180 130 99 89 320 85 72 82 90 122 145 155 158 155 155 143 143 138 129 133 131 125 127 111 102 96 84 96 81 69 73 77 80 72 83 89 84 70 68 71 76
139 278 185 139 118 69 75 14 161 116 77 106 118 99 75 106 137 140 149 155 156 156 156 145 157 138 139 132 135 139 137 122 108 98 92 79 81 81 77 76 74 74 74 70 68 72 73 77 75
86 193 88 116 109 114 25 24 156 96 99 82 21 37 87 140 124 145 153 153 156 155 144 177 151 148 148 137 140 141 135 121 100 100 104 98 93 84 83 80 80 75 69 79 72 71 73 70 69
46 316 134 79 106 70 35 52 9 346 81 81 328 42 90 128 141 148 151 155 160 157 175 166 136 159 161 153 146 141 134 137 131 126 108 89 91 66 74 85 70 62 64 64 73 81 74 71 66
282 159 113 92 96 70 44 115 97 91 128 104 55 17 64 135 146 152 158 165 169 174 173 177 157 171 161 152 145 151 132 123 121 133 112 173 114 127 159 54 56 62 66 71 85 83 76 63 71
336 131 86 43 51 50 43 44 66 205 135 118 154 105 120 153 165 167 174 175 180 182 182 182 179 163 193 142 166 145 162 166 170 167 154 137 133 85 15 72 18 33 36 65 57 61 123 232 187
35 91 80 90 22 356 28 63 12 347 73 25 346 40 161 172 179 185 187 185 186 186 186 189 184 185 181 175 174 152 229 168 191 184 194 175 209 185 189 197 184 203 175 195 205 188 212 223 258
184 64 350 52 43 338 1 338 73 57 7 330 316 332 182 193 193 190 188 190 186 187 191 191 191 190 189 190 196 179 192 190 200 198 192 211 205 202 215 260 324 255 266 270 262 267 289 245 241
213 72 314 323 309 299 309 40 27 30 353 333 328 297 244 222 211 209 199 188 190 191 190 193 192 197 198 198 197 196 205 202 202 199 203 222 215 223 218 242 250 258 271 268 268 274 275 257 258
28 316 350 8 19 60 98 49 115 1 349 7 8 1 342 287 245 223 215 205 201 200 194 193 195 199 199 207 197 204 208 204 207 211 215 213 223 225 218 234 234 253 265 275 278 291 280 268 261
236 163 136 43 36 76 129 53 29 355 354 21 22 16 12 353 306 262 242 227 211 205 197 197 196 196 204 207 202 207 207 214 214 217 214 219 222 231 224 241 234 262 267 263 255 251 262 259 258
189 204 185 48 16 114 231 89 24 7 11 25 23 20 18 22 17 353 317 273 234 219 206 198 197 202 200 205 200 206 206 211 218 213 211 215 219 222 229 245 246 245 250 259 261 257 254 258 263
165 142 94 133 26 300 338 111 28 20 30 32 25 22 19 15 12 2 343 306 249 221 209 201 198 204 203 206 205 207 213 213 217 220 219 215 218 222 232 237 244 227 241 244 254 250 258 273 267
122 160 103 358 34 81 87 84 48 34 35 34 28 24 20 17 11 1 356 344 262 217 216 207 200 205 200 200 206 208 214 217 221 221 225 222 218 218 231 241 244 232 238 242 239 254 242 277 293
103 97 343 88 81 80 91 81 49 35 37 32 29 26 21 17 15 15 14 12 357 212 212 210 202 204 196 197 199 207 212 216 219 220 223 222 223 218 220 230 231 223 237 239 244 249 254 252 256
175 200 145 121 92 153 133 94 71 50 46 36 28 28 23 18 20 19 22 27 29 0 212 212 207 203 199 201 205 218 215 226 225 222 224 224 224 224 226 228 230 226 231 231 233 232 241 253 246
198 260 177 136 127 106 158 135 116 71 59 50 43 35 32 27 22 21 24 30 34 41 43 203 204 201 205 210 199 213 216 217 218 225 233 225 227 226 228 234 236 230 230 238 227 227 233 256 218
226 159 161 156 217 234 219 133 154 98 65 46 38 36 33 30 32 31 30 34 35 39 48 62 86 170 204 203 218 227 242 253 239 269 234 226 222 226 226 231 234 240 230 238 238 230 233 232 248
69 160 169 217 239 249 186 252 111 195 79 52 42 37 35 35 35 36 36 39 41 40 45 57 65 65 56 282 271 272 260 273 285 272 274 254 243 236 231 233 239 237 235 239 239 229 230 236 245
136 149 120 156 213 235 137 237 144 149 108 88 64 51 43 40 39 40 41 40 43 43 48 51 58 56 52 51 33 340 309 308 302 294 286 274 267 257 242 230 224 235 239 238 238 237 239 236 237
207 224 213 203 200 24 126 211 58 118 105 99 85 63 53 49 46 40 39 40 40 41 43 47 50 52 52 53 48 36 15 352 321 320 311 306 286 268 257 247 242 233 231 235 233 235 236 235 235
274 298 304 291 274 91 140 217 116 122 116 111 97 83 69 57 50 45 42 44 44 44 43 43 43 45 43 46 47 44 40 42 37 25 360 333 313 303 298 275 262 261 253 241 235 232 231 234 236
124 239 7 297 38 258 115 120 148 157 145 138 112 88 69 61 51 45 44 40 41 43 42 41 42 42 40 38 38 39 38 37 31 26 21 13 9 348 325 297 279 270 264 258 250 242 237 230 234
321 71 236 191 268 258 166 214 106 180 170 153 137 100 79 65 53 49 45 40 37 38 38 41 40 41 37 34 33 31 29 27 26 23 19 14 10 4 4 356 321 288 273 264 254 251 247 244 237
314 203 59 300 294 294 295 119 355 177 172 165 140 108 77 57 47 46 43 43 42 38 34 31 30 30 27 25 23 25 24 21 20 19 12 8 4 5 4 2 357 350 322 287 263 258 261 253 252
329 38 353 280 144 353 313 66 77 206 165 156 137 111 78 55 45 42 39 37 33 31 29 27 25 21 16 12 12 16 14 11 12 11 6 2 1 1 1 359 360 358 353 342 311 287 271 262 257